Погода в Малете

Россия / Забайкальский край     50°50′16″N   108°25′01″E
темп.,
°C
ветер,
м/с
пор.,
м/с
влажн.,
%
обл.,
%
осадки,
мм/ч
давл.,
гПа
погр.,
м
8 мая, сб
сб800:000юз11701 0.0 101510
03:00−2юз117756 0.0 101510
06:00−3ююв11795 0.0 101513
09:00+5ююв124856 0.0 1012445
12:00+11зсз2232100 0.0 10091567
15:00+12зсз433033 0.0 10072111
18:00+12з4429100 0.0 10072136
21:00+6зюз23572 0.0 101052
9 мая, вс
вс900:00+2юз22745 0.0 101316
03:000юз21805 0.0 101413
06:00−1юз228471 0.0 101519
09:00+6з246410 0.0 1013475
12:00+10зсз355395 0.1 10111580
15:00+12з464493 0.1 10091901
18:00+13зсз353890 0.1 10072160
21:00+8ююв115311 0.1 100710
10 мая, пн
пн1000:00+6ююв2264100 0.0 100831
03:00+4юз1175100 0.0 100720
06:00+4зсз2583100 0.2 1008146
09:00+3зсз2697100 1.9 1010664
12:00+4зсз1391100 0.4 1011471
15:00+6зсз2475100 0.9 1010935
18:00+8с465758 0.8 10091393
21:00+5сз3871100 1.1 1011575
11 мая, вт
вт1100:00+3з4780100 0.1 1013561
03:00+1з489098 0.1 1013793
06:00+1з4897100 0.7 1013403
09:00+2з5888100 0.8 1013808
12:00+2з41195100 0.4 1012809
15:00+3зсз5992100 1.3 1012788
18:00+5зсз367996 0.3 1012841
21:00+4зсз368264 0.4 1014278
12 мая, ср
ср1200:00+3зюз268894 0.1 1015240
03:000юз22965 0.1 101634
06:00−2ююз22955 0.0 101630
09:00+5зюз13682 0.0 1012467
12:00+11з36446 0.0 10081408
15:00+14з473514 0.0 10052072
18:00+15сз463044 0.0 10032525
21:00+8ссв255677 0.0 100588